Wetbulb
64.95 65.50 66.14 66.61 65.31 67.88 68.48 70.95 72.93 74.93 75.16 75.11 75.54 75.67 75.48 75.92 75.25 74.19 74.31 72.94 73.53 73.03 72.37 72.08 72.50 73.45 73.32 73.48 73.24 72.65 72.03 71.37 71.68
63.74 64.88 65.34 64.19 64.17 67.76 68.82 72.84 74.14 75.23 74.62 74.18 74.38 75.14 75.33 74.47 74.54 74.22 73.37 73.23 73.14 73.36 73.13 73.76 72.50 72.93 72.37 72.39 72.48 71.46 71.38 71.79 70.69
63.61 61.26 63.82 64.50 64.68 68.20 72.09 72.93 74.33 74.18 73.63 73.12 72.99 73.90 74.26 72.63 71.70 71.85 71.60 72.82 71.72 71.24 70.95 70.50 70.02 70.97 71.85 70.96 70.12 69.01 67.93 67.53 70.19
66.79 67.33 67.28 67.55 69.69 71.89 72.51 73.10 72.98 72.48 73.20 72.50 72.12 71.44 71.82 71.68 70.61 70.53 71.09 69.80 71.05 71.17 70.86 69.38 67.98 69.14 68.74 68.47 68.22 67.64 68.61 67.14 67.23
67.28 68.01 68.06 68.81 70.51 70.92 71.07 71.47 71.41 71.31 71.43 71.40 71.44 71.61 71.21 70.74 70.55 69.93 68.69 68.17 68.47 68.95 68.24 69.30 70.25 69.06 67.12 66.94 67.55 69.26 69.53 68.81 69.10
65.95 68.22 67.29 67.78 69.37 68.90 69.14 69.15 68.50 68.58 69.21 71.29 71.42 70.09 68.01 67.76 67.32 66.93 67.74 67.80 68.91 68.72 68.52 68.21 69.18 68.47 67.48 67.19 66.74 67.44 67.05 66.67 66.58
66.77 68.02 68.86 69.11 68.59 68.52 68.50 68.51 68.24 69.15 69.44 68.92 68.34 68.94 68.82 67.50 67.25 68.25 69.44 69.84 69.00 69.01 68.60 68.31 68.09 67.75 67.19 66.90 65.38 64.99 65.58 65.51 64.30
67.16 67.39 69.14 68.63 68.12 68.17 68.43 68.50 69.33 69.55 68.88 68.65 69.99 69.70 69.23 67.97 69.00 68.71 68.35 67.77 68.30 68.51 68.06 67.55 67.19 66.85 66.59 66.27 64.65 63.57 62.15 63.09 64.21
66.43 66.74 68.49 69.08 69.05 68.57 68.49 68.92 68.89 69.29 69.60 69.84 69.53 68.39 67.37 67.53 67.12 66.67 66.45 65.72 65.29 64.74 65.31 66.44 65.25 64.75 63.78 65.39 62.33 61.98 62.16 59.87 58.57
66.32 67.07 67.49 68.01 68.66 68.92 68.90 69.01 69.59 68.73 69.15 70.09 68.33 67.55 68.03 67.12 66.20 65.52 65.64 65.01 63.45 61.30 61.01 60.75 60.38 60.26 59.60 61.00 60.14 59.84 59.76 60.23 54.89
66.35 66.78 66.94 66.81 67.58 68.28 68.87 68.91 68.85 68.32 67.19 67.20 66.58 65.49 65.70 65.87 65.20 64.06 63.11 60.57 59.52 58.50 58.55 57.83 58.76 57.56 57.25 56.89 57.71 58.64 58.00 59.39 53.34
66.69 66.72 67.35 67.30 68.10 68.10 67.81 68.18 68.61 67.79 66.49 65.74 65.50 64.23 63.47 63.14 61.49 60.21 59.23 58.22 57.51 57.34 56.40 55.32 54.50 56.03 54.61 55.44 56.40 58.93 57.56 55.63 52.44
68.07 68.37 67.98 67.45 68.60 68.44 67.85 67.63 68.13 66.37 65.29 62.85 62.20 62.08 60.26 59.76 59.33 57.99 56.80 56.40 55.53 55.20 55.10 55.59 54.30 54.89 54.18 56.77 53.83 58.16 56.96 54.22 51.26
68.07 67.58 68.07 68.18 67.65 66.74 67.08 67.83 67.96 64.55 63.28 61.13 60.91 60.67 59.27 57.74 56.38 56.09 55.20 54.68 54.63 54.10 53.73 53.83 53.52 54.00 54.92 54.20 55.43 54.55 55.75 54.12 47.76
66.58 66.33 66.97 66.95 65.13 63.55 64.18 66.43 62.96 60.24 59.16 59.87 59.26 58.43 57.18 55.87 54.59 54.98 55.16 52.76 53.07 53.70 53.81 53.05 53.39 53.63 51.21 49.31 50.58 54.08 54.62 53.07 51.97
65.86 66.13 65.09 63.71 61.94 60.41 59.98 61.20 61.34 58.17 58.11 57.86 56.77 56.12 54.96 54.70 54.50 54.20 54.01 52.60 52.73 52.99 53.45 53.44 48.57 48.32 46.42 46.88 48.66 48.61 54.04 52.95 53.04
64.92 64.46 62.92 62.23 60.56 58.83 57.95 58.47 58.74 57.87 56.86 55.97 54.96 53.45 53.44 53.60 53.65 53.57 54.65 52.90 53.25 51.13 50.54 48.82 48.85 48.27 47.04 46.68 47.22 45.41 45.70 45.69 45.51
63.39 62.70 62.62 61.72 59.77 57.58 56.20 56.15 54.84 55.08 54.19 53.60 52.53 51.80 51.59 51.92 52.69 52.59 51.70 52.95 52.13 52.16 51.75 51.13 49.66 48.10 47.38 45.49 43.49 44.19 44.78 43.92 44.03
61.89 61.13 60.77 59.75 58.21 56.18 55.32 54.71 53.63 53.45 53.90 53.49 52.30 51.53 50.94 50.64 49.33 49.21 49.97 50.47 50.26 51.79 50.64 49.04 44.66 44.68 46.23 46.24 46.23 45.01 44.32 43.44 43.21
60.22 59.63 58.53 57.56 56.45 56.08 55.31 54.17 53.47 53.71 53.64 53.69 52.11 50.92 51.50 50.58 50.81 50.82 47.76 47.63 47.86 46.69 48.02 46.07 44.29 43.81 44.57 45.69 45.14 44.53 42.81 41.80 41.95
MSLP
1005.78 1006.52 1004.74 1006.46 1006.67 1007.78 1008.58 1005.29 1005.77 1006.84 1007.78 1008.55 1009.04 1009.33 1009.69 1010.17 1010.58 1010.98 1011.24 1011.33 1011.58 1011.67 1011.85 1011.80 1011.74 1011.82 1011.91 1012.09 1012.51 1012.61 1012.93 1013.26 1013.44
1004.78 1005.66 1006.03 1007.06 1007.07 1009.51 1007.70 1006.01 1006.53 1007.49 1008.18 1008.61 1008.95 1009.29 1009.55 1010.05 1010.41 1010.66 1010.67 1010.59 1010.67 1011.19 1011.44 1011.54 1011.85 1011.82 1012.27 1012.52 1013.15 1012.79 1013.72 1013.69 1013.55
1005.22 1005.72 1006.29 1007.49 1007.92 1008.98 1006.65 1006.38 1007.25 1008.35 1008.82 1009.06 1009.29 1009.35 1009.70 1010.44 1010.74 1011.02 1010.96 1010.83 1011.29 1011.52 1011.67 1011.92 1012.02 1012.21 1012.40 1012.84 1013.12 1013.35 1013.53 1014.20 1014.28
1005.53 1005.60 1005.99 1006.66 1007.17 1007.16 1007.08 1007.51 1008.20 1008.87 1009.18 1009.54 1009.90 1010.21 1010.62 1010.99 1011.33 1011.42 1011.50 1011.71 1011.84 1012.04 1012.11 1012.11 1012.07 1012.35 1012.62 1013.33 1013.25 1013.33 1013.15 1014.18 1013.69
1006.04 1005.72 1006.01 1006.41 1006.98 1007.23 1007.73 1008.33 1008.77 1009.20 1009.56 1009.90 1010.35 1010.67 1011.02 1011.37 1011.41 1011.55 1011.77 1011.91 1012.02 1012.12 1012.26 1012.32 1012.41 1012.62 1013.11 1013.17 1013.26 1013.19 1013.52 1013.74 1013.77
1006.37 1006.13 1006.55 1006.91 1007.36 1008.08 1008.56 1009.12 1009.51 1009.77 1010.11 1010.42 1010.79 1011.05 1011.35 1011.65 1011.90 1012.06 1012.30 1012.27 1012.23 1012.28 1012.33 1012.43 1012.66 1012.84 1013.06 1013.31 1013.38 1013.07 1013.04 1013.42 1013.17
1006.11 1006.13 1006.87 1007.53 1008.30 1008.82 1009.19 1009.60 1010.16 1010.32 1010.57 1010.76 1011.07 1011.40 1011.79 1012.07 1012.19 1012.28 1012.34 1012.44 1012.59 1012.74 1012.72 1012.79 1012.84 1012.96 1013.10 1013.40 1013.56 1013.53 1013.37 1013.09 1013.11
1005.41 1006.41 1007.22 1008.06 1008.52 1009.08 1009.35 1009.91 1010.38 1010.47 1010.67 1010.95 1011.31 1011.67 1012.03 1012.36 1012.48 1012.68 1012.73 1012.84 1012.94 1013.03 1013.02 1013.01 1013.05 1013.13 1013.15 1013.30 1013.65 1013.91 1013.76 1013.68 1013.67
1005.11 1006.23 1007.09 1007.74 1008.28 1008.81 1009.30 1009.97 1010.28 1010.33 1010.63 1011.09 1011.46 1011.92 1012.37 1012.64 1012.90 1013.08 1013.22 1013.39 1013.49 1013.48 1013.50 1013.56 1013.56 1013.55 1013.56 1013.63 1013.97 1014.14 1014.14 1014.06 1014.07
1004.80 1005.74 1006.54 1007.26 1007.89 1008.42 1009.33 1009.78 1010.10 1010.64 1010.92 1011.33 1011.81 1012.12 1012.73 1013.09 1013.15 1013.26 1013.40 1013.66 1013.87 1014.03 1014.05 1013.99 1013.97 1013.85 1013.78 1013.91 1014.05 1014.17 1014.18 1014.32 1014.33
1004.61 1005.23 1006.04 1006.78 1007.35 1008.23 1009.05 1009.51 1010.17 1010.89 1011.35 1011.68 1012.20 1012.83 1013.24 1013.48 1013.53 1013.74 1013.92 1014.11 1014.40 1014.43 1014.37 1014.37 1014.27 1014.17 1014.06 1014.00 1013.99 1014.00 1014.01 1014.12 1014.26
1004.01 1004.75 1005.76 1006.73 1007.58 1008.35 1009.20 1009.85 1010.41 1011.24 1011.77 1012.18 1012.61 1013.15 1013.50 1013.81 1013.95 1014.13 1014.38 1014.53 1014.71 1014.73 1014.77 1014.72 1014.57 1014.43 1014.23 1014.14 1014.09 1013.95 1014.03 1014.19 1014.41
1004.09 1004.71 1005.86 1007.08 1007.98 1008.89 1009.61 1010.18 1010.73 1011.32 1012.06 1012.60 1013.05 1013.46 1013.87 1014.05 1014.24 1014.56 1014.77 1014.84 1014.90 1014.82 1014.80 1014.80 1014.61 1014.51 1014.23 1014.13 1014.06 1013.91 1013.98 1014.43 1014.60
1004.12 1004.96 1006.25 1007.47 1008.34 1009.23 1009.85 1010.21 1010.85 1011.79 1012.35 1013.10 1013.41 1013.64 1014.09 1014.34 1014.47 1014.76 1014.83 1014.90 1014.88 1014.90 1014.97 1014.89 1014.77 1014.67 1014.31 1014.36 1014.02 1014.02 1014.23 1014.50 1014.65
1005.04 1006.06 1007.07 1008.00 1009.06 1010.04 1010.39 1010.92 1011.61 1012.65 1013.23 1013.44 1013.60 1013.99 1014.42 1014.59 1014.62 1014.70 1014.78 1014.83 1014.89 1014.87 1014.98 1014.90 1014.89 1014.77 1014.69 1014.43 1014.27 1014.12 1014.27 1014.48 1014.65
1005.77 1006.64 1007.88 1008.74 1009.59 1010.59 1011.22 1011.69 1012.20 1013.09 1013.57 1013.75 1013.95 1014.24 1014.55 1014.65 1014.54 1014.58 1014.64 1014.78 1014.76 1014.76 1014.71 1014.74 1014.80 1014.73 1014.65 1014.38 1014.00 1014.14 1014.24 1014.49 1014.77
1006.62 1007.68 1008.45 1009.36 1010.34 1011.31 1012.19 1012.61 1013.04 1013.44 1013.84 1013.88 1014.09 1014.40 1014.58 1014.57 1014.53 1014.53 1014.46 1014.36 1014.32 1014.37 1014.34 1014.23 1014.25 1014.43 1014.39 1014.24 1014.94 1015.19 1015.24 1015.28 1015.01
1007.46 1008.42 1009.16 1010.00 1010.87 1011.90 1012.76 1013.10 1013.55 1013.85 1014.04 1014.14 1014.43 1014.62 1014.65 1014.63 1014.55 1014.48 1014.38 1014.23 1014.06 1013.97 1013.72 1013.66 1013.70 1013.84 1014.56 1015.00 1015.28 1015.35 1015.25 1015.19 1014.96
1008.18 1008.95 1009.81 1010.67 1011.51 1012.35 1013.06 1013.40 1013.84 1014.19 1014.17 1014.34 1014.63 1014.76 1014.73 1014.62 1014.56 1014.42 1014.36 1014.24 1013.90 1013.40 1013.23 1013.15 1014.16 1014.09 1014.52 1014.99 1014.99 1015.01 1014.88 1014.68 1014.33
1008.70 1009.45 1010.28 1011.27 1011.91 1012.45 1013.14 1013.61 1013.97 1014.19 1014.18 1014.39 1014.63 1014.71 1014.67 1014.58 1014.55 1014.54 1014.33 1014.11 1014.04 1014.12 1014.42 1014.13 1014.30 1014.44 1014.56 1014.71 1014.68 1014.56 1014.52 1014.35 1013.98
Wind_Speed
26 13 17 25 8 16 25 17 16 14 13 9 8 6 7 7 7 4 5 6 4 4 4 4 4 4 6 4 5 2 3 3 4
19 16 26 35 12 12 28 11 12 12 9 7 7 8 6 5 4 5 6 4 3 1 2 3 5 5 5 6 6 7 8 6 6
11 13 16 16 13 13 5 14 12 12 12 9 6 6 5 5 6 5 5 3 4 6 6 7 5 5 7 7 7 4 6 9 15
8 8 11 9 8 12 16 15 14 12 11 11 9 8 7 6 3 3 5 5 4 5 4 2 1 1 5 6 2 4 7 5 18
4 7 8 10 13 13 13 13 11 10 8 9 7 6 6 6 5 6 6 6 5 4 3 4 5 3 4 2 2 3 4 6 1
6 8 8 8 11 10 11 10 8 7 7 7 6 7 7 7 7 6 6 5 5 4 1 0 1 2 1 1 2 1 2 2 4
6 9 8 10 10 9 9 8 7 6 6 7 6 6 6 6 5 4 4 6 7 7 7 7 6 5 5 4 3 1 2 4 4
10 9 10 10 9 8 8 7 6 7 6 6 7 7 6 6 6 6 7 7 6 5 5 4 4 4 3 3 6 5 6 7 6
13 9 11 12 11 10 8 7 7 7 7 7 7 7 7 7 6 6 6 7 6 7 6 7 7 7 7 6 5 9 11 9 6
15 11 11 12 12 11 9 8 7 7 8 10 8 10 7 6 6 6 6 5 6 6 6 6 6 6 6 5 4 6 8 9 5
11 11 11 9 8 8 8 9 9 10 7 9 9 8 6 4 5 6 5 6 5 5 4 4 3 5 4 4 1 3 4 6 4
9 11 9 7 8 7 10 10 11 9 7 7 7 6 5 5 5 5 5 5 4 3 3 4 3 3 4 3 3 5 3 2 2
15 14 11 10 13 11 10 7 10 9 8 7 7 7 6 5 4 5 4 4 3 3 3 2 3 5 5 6 5 7 6 4 1
14 10 16 11 11 9 7 8 7 10 9 7 6 7 6 6 4 2 4 3 2 2 3 5 5 5 6 6 5 2 6 5 4
18 16 15 15 12 8 8 10 12 9 8 6 6 6 6 5 3 2 2 1 3 4 4 5 6 4 4 3 2 5 6 8 5
14 14 14 13 12 11 8 8 10 9 5 6 5 5 4 3 3 3 4 4 5 4 4 2 2 2 1 3 4 4 5 7 2
9 11 13 13 13 10 8 8 7 7 6 4 4 4 2 3 3 4 4 4 4 3 3 2 3 3 4 3 5 4 4 3 4
9 10 10 11 11 9 8 8 7 6 6 6 5 3 3 4 3 2 3 4 5 4 5 5 5 4 4 5 4 1 1 2 5
9 10 10 10 10 9 8 8 7 6 6 5 3 3 3 3 3 4 4 3 4 7 7 8 14 11 7 2 6 3 6 10 12
13 11 10 8 9 9 8 7 7 6 4 5 3 1 4 3 3 4 2 3 2 3 10 14 10 10 9 7 1 6 9 12 15
Wind_Direction
236 130 73 21 347 358 333 175 163 162 158 146 160 163 167 181 203 202 212 217 211 216 216 227 226 243 228 199 255 304 262 213 208
92 117 121 179 218 124 254 116 118 126 128 148 163 176 175 183 203 223 230 198 200 208 263 266 52 40 22 46 70 20 341 337 286
110 120 142 168 186 212 134 102 101 90 90 94 78 55 101 85 64 49 5 90 32 26 7 30 23 57 67 60 85 92 13 320 303
74 107 135 154 114 80 80 82 89 88 84 81 70 62 63 78 78 62 58 76 68 47 50 48 142 101 109 95 136 222 70 254 267
64 87 92 87 93 86 81 80 80 87 88 90 88 95 101 93 67 47 49 49 45 61 40 45 46 93 91 58 176 74 176 182 269
264 113 106 91 84 85 89 88 84 85 87 108 117 92 89 76 68 65 63 46 50 33 358 276 58 90 138 31 75 345 82 136 86
179 104 100 98 97 98 99 99 109 108 104 109 117 114 113 104 101 89 75 78 60 50 46 52 60 54 69 108 114 67 332 351 348
126 125 121 125 123 123 121 131 150 128 125 136 105 91 92 91 67 57 61 60 51 58 51 53 53 39 40 72 85 54 39 33 21
147 165 152 146 136 137 140 165 164 147 152 118 111 110 91 98 86 77 73 62 54 44 35 32 25 38 46 57 69 59 50 41 22
158 163 155 146 152 152 165 176 133 117 106 100 99 87 84 84 86 75 67 62 51 41 29 29 19 19 41 54 94 86 69 46 30
151 138 136 143 138 139 158 123 109 98 98 95 90 94 89 89 89 83 67 67 53 36 16 11 5 356 22 25 87 138 67 53 38
141 133 128 124 124 116 106 120 119 116 114 118 111 102 89 71 77 85 84 72 52 25 11 357 359 353 354 330 300 282 184 120 19
131 131 127 123 106 106 104 115 116 125 108 113 114 112 107 91 77 89 85 65 50 355 353 324 333 316 296 280 285 295 179 134 64
131 118 111 112 104 109 121 131 111 103 105 95 109 104 102 89 57 49 105 60 358 305 298 308 297 291 288 335 322 179 147 140 100
108 110 104 104 98 81 62 86 99 99 96 106 99 110 117 117 98 77 124 173 280 281 277 282 308 324 15 346 43 152 174 149 170
115 110 110 104 98 84 63 47 106 104 114 107 112 108 116 153 187 224 218 237 264 282 287 203 236 93 308 286 287 6 192 168 267
108 106 114 113 106 98 89 87 89 100 99 101 104 113 180 252 233 250 245 243 253 255 248 241 244 245 260 279 49 32 48 5 321
106 113 114 116 116 115 113 104 106 106 93 67 51 37 317 304 303 298 271 265 244 252 257 206 217 248 53 86 47 309 220 301 315
109 102 100 100 110 114 121 110 108 107 108 104 76 10 8 4 358 322 324 334 334 324 255 293 81 98 114 120 161 204 327 320 303
108 102 102 109 119 118 120 125 122 123 136 108 83 348 307 312 314 308 313 323 308 303 45 91 99 106 99 76 293 294 295 293 291